Current weather by "City, St" or "zip code"  
 

Current Conditions: Fort Drum / Wheeler-Sack U. S. Army Airfield, NY

Mostly Cloudy


71.0 F

Last Updated on May 21 2022, 4:56 am EDT
Humidity: 78%
Wind Speed: S 12.7 mph
Barometer 29.80 in
Dewpoint: 64.2 F
Visibility: 10.00 mi
Precip: --
Heat Index: NA
Wind Chill: NA
Current conditions at:

Fort Drum / Wheeler-Sack U. S. Army Airfield, NY (KGTB)

Lat: 44.05 Lon: 75.73333

Local Radar Image active severe weather and emergency alerts image image weather storm and storm spotter reports image weather observation monitoring service image
Local
Radar
Active
Alerts
Storm Reports Obs
Monitoring

Sign-up For Email & Text Message Weather Alert Notification Services



Advertise Here

Observation History for Fort Drum / Wheeler-Sack U. S. Army Airfield, NY


Time Wind
(mph)
Vis
(mi)
Weather Precip (in) Temperature (F) Relative
Humidity
Wind
Chill
(F)
Heat
Index
(F)
Pressure
Air Dwpt altimeter
(in)
sea level
(mb)
Rmks
4:56 am EDT S 12.7 10.00 Mostly Cloudy -- 71.0 64.2 78% NA NA 29.80 1008.7
3:56 am EDT S 10.4 10.00 Fair -- 69.0 63.3 81% NA NA 29.78 1008.0
2:56 am EDT SE 13.8 10.00 A Few Clouds -- 67.0 63.0 86% NA NA 29.76 1007.4
1:56 am EDT S 11.5 10.00 A Few Clouds -- 70.0 63.5 81% NA NA 29.78 1008.0
12:56 am EDT S 8.1 10.00 Partly Cloudy -- 69.0 62.2 80% NA NA 29.78 1008.1
11:56 pm EDT S 12.7 10.00 A Few Clouds -- 70.0 62.2 76% NA NA 29.79 1008.5
10:56 pm EDT S 10.4 10.00 Fair -- 71.0 61.3 72% NA NA 29.80 1008.8
9:56 pm EDT S 13.8 10.00 Fair -- 73.0 61.0 67% NA NA 29.78 1008.2
8:56 pm EDT S 12.7 10.00 Fair -- 74.0 59.2 59% NA NA 29.71 1005.9
7:56 pm EDT S 17.3 10.00 Fair -- 78.0 59.2 52% NA NA 29.72 1006.2
5:56 pm EDT S 13.8 10.00 Fair -- 82.0 60.4 49% NA 83 29.70 1005.5
4:56 pm EDT S 18.4 10.00 Mostly Cloudy -- 82.0 60.4 48% NA 82 29.71 1005.9
3:56 pm EDT SW 17.3 10.00 Mostly Cloudy -- 81.0 61.3 51% NA 82 29.73 1006.6
2:56 pm EDT S 18.4 G 25.3 10.00 Overcast -- 80.0 59.9 50% NA 81 29.73 1006.6
10:56 am EDT SE 16.1 10.00 A Few Clouds -- 70.0 57.4 64% NA NA 29.78 1008.4
9:56 am EDT SE 19.6 10.00 Fair -- 65.0 54.3 69% NA NA 29.77 1008.1
8:56 am EDT SE 17.3 10.00 Mostly Cloudy -- 57.0 50.5 79% 53 NA 29.78 1008.6
7:56 am EDT SE 15.0 10.00 Overcast Trace 52.0 48.9 88% 47 NA 29.81 1009.6
5:56 am EDT SE 15.0 10.00 Overcast -- 50.0 46.9 90% 45 NA 29.80 1009.3

Regional Weather Observation


Ogdensburg International Airport, NY (KOGS)

Overcast
70.0 F

Watertown, Watertown International Airport, NY (KART)

Fair
73.0 F

Potsdam Municipal Airport/Damon Field, NY (KPTD)

Overcast
73.0 F

Fulton, Oswego County Airport, NY (KFZY)

Fair
71.0 F

Griffiss Air Force Base / Rome, NY (KRME)

Fair
67.0 F

Syracuse, Syracuse Hancock International Airport, NY (KSYR)

A Few Clouds
71.0 F

Advertise Here


Advertise Here